Logan, UT

7:12 AM MST on December 07, 2019 (GMT -0700)
Logan-Cache

Weather History for KLGU - November, 2019

Change the Weather History Date:

Tuesday, November 19, 2019

  Actual Average Record
Temperature  
Mean Temperature 43 °F -  
Max Temperature 61 °F 43 °F 66 °F (2007)
Min Temperature 25 °F 23 °F 6 °F (2011)
Degree Days  
Heating Degree Days 22    
Moisture  
Dew Point 28 °F    
Average Humidity 66    
Maximum Humidity 89    
Minimum Humidity 29    
Precipitation  
Precipitation 0.00 in - - ()
Sea Level Pressure  
Sea Level Pressure 29.73 in    
Wind  
Wind Speed 3 mph ()    
Max Wind Speed 10 mph    
Max Gust Speed -    
Visibility 8.8 miles    
Events      
Averages and records for this station are not official NWS values.
T = Trace of Precipitation, MM = Missing Value Source: Averaged Metar Reports

Daily Weather History Graph

Daily Weather History Graph

Search for Another Location

Airport or City:

Astronomy

Nov. 19, 2019 Rise Set
Actual Time 7:21 AM MST 5:03 PM MST
Civil Twilight 6:51 AM MST 5:33 PM MST
Nautical Twilight 6:17 AM MST 6:07 PM MST
Astronomical Twilight 5:44 AM MST 6:40 PM MST
Moon No Moon Rise 1:33 PM MST (11/19)
Length of Visible Light 10h 42m
Length of Day
9h 42m
Waning Gibbous, 51% of the Moon is Illuminated
Nov 19
Waning Gibbous
Nov 19
Last Quarter
Nov 26
New
Dec 3
First Quarter
Dec 11
Full

Hourly Weather History & Observations

Time (MST) Temp. Windchill Dew Point Humidity Pressure Visibility Wind Dir Wind Speed Gust Speed Precip Events Conditions
12:51 AM 28.0 °F 21.7 °F 25.0 °F 88% 29.90 in 10.0 mi North 5.8 mph - N/A   Clear
1:51 AM 30.0 °F - 26.1 °F 85% 29.86 in 9.0 mi Calm Calm - N/A   Clear
2:51 AM 28.9 °F 25.2 °F 25.0 °F 85% 29.86 in 8.0 mi SSW 3.5 mph - N/A   Clear
3:51 AM 30.0 °F 25.2 °F 27.0 °F 88% 29.83 in 9.0 mi SSW 4.6 mph - N/A   Clear
4:51 AM 28.0 °F - 24.1 °F 85% 29.82 in 9.0 mi Calm Calm - N/A   Clear
5:51 AM 25.0 °F 17.1 °F 21.9 °F 88% 29.81 in 7.0 mi North 6.9 mph - N/A   Clear
6:51 AM 28.0 °F 24.2 °F 25.0 °F 88% 29.79 in 9.0 mi SE 3.5 mph - N/A   Clear
7:51 AM 27.0 °F 20.5 °F 24.1 °F 89% 29.81 in 6.0 mi NNW 5.8 mph - N/A   Clear
8:51 AM 30.9 °F 26.2 °F 28.0 °F 89% 29.79 in 7.0 mi West 4.6 mph - N/A   Clear
9:51 AM 33.1 °F 28.7 °F 28.9 °F 85% 29.79 in 7.0 mi SW 4.6 mph - N/A   Clear
10:51 AM 37.9 °F 35.5 °F 30.9 °F 76% 29.77 in 9.0 mi South 3.5 mph - N/A   Clear
11:51 AM 46.0 °F - 32.0 °F 58% 29.71 in 10.0 mi Calm Calm - N/A   Clear
12:51 PM 54.0 °F - 33.1 °F 45% 29.68 in 10.0 mi NNE 4.6 mph - N/A   Clear
1:51 PM 59.0 °F - 30.0 °F 33% 29.63 in 10.0 mi Calm Calm - N/A   Clear
2:51 PM 61.0 °F - 28.0 °F 29% 29.61 in 10.0 mi Calm Calm - N/A   Clear
3:51 PM 57.9 °F - 28.9 °F 33% 29.61 in 10.0 mi WNW 3.5 mph - N/A   Clear
4:51 PM 52.0 °F - 30.9 °F 45% 29.64 in 8.0 mi NNW 8.1 mph - N/A   Clear
5:51 PM 52.0 °F - 28.9 °F 41% 29.64 in 7.0 mi NNE 5.8 mph - N/A   Clear
6:51 PM 48.0 °F - 30.0 °F 50% 29.65 in 9.0 mi Calm Calm - N/A   Scattered Clouds
7:51 PM 44.1 °F 40.8 °F 30.9 °F 60% 29.67 in 9.0 mi North 5.8 mph - N/A   Scattered Clouds
8:51 PM 46.0 °F 41.0 °F 30.0 °F 54% 29.66 in 10.0 mi NNE 10.4 mph - N/A   Clear
9:51 PM 43.0 °F 41.3 °F 30.0 °F 60% 29.67 in 8.0 mi Variable 3.5 mph - N/A   Clear
10:51 PM 39.9 °F 37.8 °F 30.0 °F 68% 29.67 in 10.0 mi East 3.5 mph - N/A   Clear
11:51 PM 41.0 °F - 30.9 °F 67% 29.64 in 10.0 mi Calm Calm - N/A   Clear